Flag for U.S.A. Weather past 2 weeks in Greensboro, North Carolina, U.S.A.

Now
76 °F

Scattered clouds.


Feels Like: 78 °F
Forecast: 58 / 73 °F
Wind: 8 mph from West

Location: Piedmont Triad International Airport

Current Time: Sep 21, 2014 at 9:09:59 PM

Latest Report: Sep 21, 2014 at 7:54 PM


Visibility: 10 mi

Pressure: 29.81 "Hg

Humidity: 69%

Dew point: 65 °F

Location of GreensboroLocation

Historic Weather in Greensboro — Graph

°F

Greensboro temperature yesterday

Maximum temperature yesterday: 80 °F (at 3:54 PM)
Minimum temperature yesterday: 58 °F (at 6:54 AM)
Average temperature yesterday: 68 °F

Past Weeks' High & Low Weather Summary

 TemperatureHumidityPressure
High89 °F (Sep 11, 3:54 PM)100% (Sep 8, 3:02 AM)30.28 "Hg (Sep 8, 3:02 AM)
Low58 °F (Sep 20, 6:54 AM)44% (Sep 20, 3:54 PM)29.78 "Hg (Sep 21, 5:54 PM)
Average70 °F82%30.06 "Hg
* Reported Sep 6 7:54 PM — Sep 21 7:54 PM, Greensboro, Weather by CustomWeather, © 2014

Note: Actual official high and low records may vary slightly from our data, if they occured in-between our weather recording intervals... More about our weather records

Advertising

Greensboro weather history for previous 24 hours

 ConditionsComfort  
Time TempWeatherWind HumidityBarometerVisibility
7:54 PM
Sep 21
76 °FScattered clouds.8 mph69%29.81 "Hg10 mi
6:54 PM79 °FPartly sunny.14 mph60%29.80 "Hg10 mi
5:54 PM82 °FPartly sunny.9 mph56%29.78 "Hg10 mi
4:54 PM84 °FPartly sunny.10 mph51%29.78 "Hg10 mi
3:54 PM84 °FBroken clouds.15 mph49%29.79 "Hg10 mi
2:54 PM85 °FScattered clouds.9 mph48%29.79 "Hg10 mi
1:54 PM83 °FPassing clouds.9 mph51%29.83 "Hg10 mi
12:54 PM81 °FPassing clouds.10 mph51%29.86 "Hg10 mi
11:54 AM80 °FPassing clouds.9 mph52%29.88 "Hg10 mi
10:54 AM77 °FPassing clouds.9 mph56%29.90 "Hg10 mi
9:54 AM72 °FPassing clouds.10 mph66%29.90 "Hg10 mi
8:54 AM66 °FScattered clouds.5 mph81%29.91 "Hg10 mi
7:54 AM60 °FPassing clouds.No wind90%29.92 "Hg9 mi
6:54 AM59 °FPassing clouds.No wind93%29.91 "Hg9 mi
5:54 AM61 °FPassing clouds.No wind90%29.92 "Hg10 mi
4:54 AM60 °FPassing clouds.No wind90%29.92 "Hg10 mi
3:54 AM62 °FPassing clouds.3 mph86%29.93 "Hg10 mi
2:54 AM61 °FPassing clouds.3 mph90%29.94 "Hg10 mi
1:54 AM63 °FPassing clouds.5 mph87%29.97 "Hg10 mi
12:54 AM64 °FPassing clouds.3 mph81%30.00 "Hg10 mi
11:54 PM
Sep 20
65 °FPassing clouds.3 mph81%30.01 "Hg10 mi
10:54 PM67 °FPassing clouds.No wind76%30.03 "Hg10 mi
9:54 PM67 °FPassing clouds.No wind76%30.02 "Hg10 mi
Weather by CustomWeather, © 2014

See weather overviewHow to use our weather pages